This is the latest recevied weather packets stored in our database for station/object 7L2IWN-13. If no packets are shown the sender has not sent any weather packets the latest 10 day(s).
| Time | Temp. | Humidity | Pressure | Rain* | Wind** | Luminosity | Snow |
|---|---|---|---|---|---|---|---|
| 1777527980 | 12.22° C | 83% | 1019.6 hPa | 0 mm | - | - | - |
| 1777527259 | 12.22° C | 84% | 1019.6 hPa | 0 mm | - | - | - |
| 1777526538 | 12.22° C | 83% | 1019.5 hPa | 0 mm | - | - | - |
| 1777525820 | 12.22° C | 84% | 1019.4 hPa | 0 mm | - | - | - |
| 1777525100 | 12.22° C | 83% | 1019.7 hPa | 0 mm | - | - | - |
| 1777524381 | 12.22° C | 83% | 1019.5 hPa | 0 mm | - | - | - |
| 1777523660 | 12.22° C | 83% | 1019.8 hPa | 0 mm | - | - | - |
| 1777522940 | 12.78° C | 83% | 1019.9 hPa | 0 mm | - | - | - |
| 1777522221 | 12.22° C | 84% | 1019.8 hPa | 0 mm | - | - | - |
| 1777521501 | 11.67° C | 85% | 1019.9 hPa | 0 mm | - | - | - |
| 1777520780 | 12.22° C | 85% | 1019.9 hPa | 0 mm | - | - | - |
| 1777520060 | 11.67° C | 86% | 1020.2 hPa | 0 mm | - | - | - |
| 1777519339 | 12.22° C | 87% | 1020 hPa | 0 mm | - | - | - |
| 1777517900 | 12.22° C | 84% | 1020.2 hPa | 0 mm | - | - | - |
| 1777517180 | 12.22° C | 79% | 1020.2 hPa | 0 mm | - | - | - |
| 1777516461 | 12.22° C | 76% | 1020.3 hPa | 0 mm | - | - | - |
| 1777515740 | 12.22° C | 76% | 1020.5 hPa | 0 mm | - | - | - |
| 1777515020 | 12.22° C | 78% | 1020.5 hPa | 0 mm | - | - | - |
| 1777514300 | 12.22° C | 80% | 1020.6 hPa | 0 mm | - | - | - |
| 1777513581 | 12.22° C | 82% | 1020.6 hPa | 0 mm | - | - | - |
| 1777512860 | 12.22° C | 82% | 1020.6 hPa | 0 mm | - | - | - |
| 1777512140 | 13.33° C | 87% | 1020.6 hPa | 0 mm | - | - | - |
| 1777511421 | 13.33° C | 88% | 1020.2 hPa | 0 mm | - | - | - |
| 1777509981 | 13.33° C | 80% | 1020.1 hPa | 0 mm | - | - | - |
| 1777509262 | 12.78° C | 81% | 1020.2 hPa | 0 mm | - | - | - |
* Rain latest hour (hover to see other rain measurements)
** Current wind speed in m/s (hover to see current wind gust speed)